Total_Precipitation_Accumulation
0.00 0.00 0.03 0.08 0.10 0.08 0.09 0.08 0.07 0.09 0.01 0.00 0.00 0.00 0.00 0.00 0.01 0.03 0.00 0.00 0.00 0.00 0.00 0.02 0.02 0.02 0.01 0.01 0.03 0.05 0.04 0.03 0.03 0.04 0.05 0.03 0.03 0.03 0.02 0.03 0.09 0.11 0.09 0.06 0.03 0.02 0.02 0.02 0.02
0.00 0.00 0.02 0.04 0.04 0.08 0.14 0.12 0.10 0.12 0.01 0.00 0.00 0.00 0.00 0.00 0.00 0.00 0.00 0.00 0.00 0.00 0.00 0.01 0.02 0.01 0.01 0.01 0.01 0.03 0.04 0.04 0.06 0.07 0.06 0.05 0.04 0.04 0.03 0.03 0.06 0.09 0.07 0.07 0.03 0.02 0.02 0.01 0.01
0.00 0.00 0.00 0.01 0.03 0.08 0.14 0.14 0.07 0.04 0.01 0.01 0.00 0.00 0.00 0.00 0.00 0.00 0.00 0.00 0.00 0.00 0.00 0.02 0.02 0.01 0.01 0.01 0.01 0.03 0.04 0.05 0.08 0.08 0.07 0.07 0.07 0.06 0.05 0.05 0.06 0.06 0.04 0.04 0.04 0.03 0.02 0.01 0.01
0.00 0.00 0.00 0.00 0.02 0.05 0.11 0.14 0.04 0.05 0.04 0.02 0.00 0.00 0.00 0.00 0.00 0.00 0.00 0.00 0.00 0.00 0.00 0.02 0.02 0.01 0.01 0.01 0.01 0.02 0.03 0.04 0.06 0.06 0.05 0.06 0.05 0.07 0.07 0.06 0.08 0.09 0.08 0.05 0.06 0.06 0.07 0.05 0.03
0.00 0.00 0.00 0.00 0.02 0.04 0.09 0.13 0.08 0.11 0.06 0.01 0.00 0.00 0.00 0.00 0.00 0.00 0.00 0.00 0.00 0.00 0.01 0.02 0.02 0.01 0.01 0.01 0.01 0.02 0.02 0.03 0.04 0.03 0.03 0.03 0.03 0.04 0.05 0.05 0.06 0.07 0.09 0.09 0.09 0.09 0.07 0.08 0.08
0.00 0.00 0.00 0.01 0.02 0.04 0.06 0.10 0.15 0.19 0.14 0.05 0.01 0.00 0.00 0.00 0.00 0.00 0.00 0.00 0.00 0.00 0.01 0.02 0.02 0.01 0.01 0.01 0.01 0.02 0.02 0.02 0.02 0.02 0.02 0.01 0.02 0.02 0.03 0.04 0.03 0.02 0.02 0.04 0.07 0.11 0.10 0.08 0.12
0.00 0.00 0.00 0.01 0.01 0.01 0.03 0.06 0.14 0.27 0.31 0.18 0.09 0.01 0.00 0.00 0.00 0.00 0.00 0.00 0.00 0.00 0.00 0.01 0.01 0.01 0.02 0.01 0.01 0.01 0.01 0.01 0.01 0.01 0.01 0.01 0.01 0.01 0.01 0.01 0.01 0.01 0.01 0.02 0.03 0.04 0.05 0.05 0.09
0.00 0.00 0.00 0.00 0.01 0.01 0.02 0.04 0.08 0.17 0.30 0.23 0.19 0.05 0.00 0.00 0.00 0.00 0.00 0.00 0.01 0.01 0.00 0.01 0.01 0.01 0.01 0.01 0.01 0.01 0.01 0.01 0.01 0.01 0.01 0.01 0.00 0.00 0.00 0.01 0.01 0.00 0.00 0.01 0.01 0.01 0.02 0.04 0.06
0.00 0.00 0.00 0.00 0.00 0.01 0.03 0.05 0.07 0.16 0.21 0.15 0.18 0.13 0.02 0.00 0.00 0.00 0.01 0.01 0.02 0.01 0.01 0.01 0.00 0.01 0.01 0.01 0.00 0.00 0.01 0.01 0.01 0.01 0.00 0.00 0.00 0.01 0.03 0.01 0.01 0.02 0.04 0.06 0.06 0.06 0.05 0.05 0.06
0.00 0.00 0.00 0.00 0.00 0.00 0.01 0.03 0.04 0.10 0.18 0.16 0.11 0.12 0.06 0.00 0.00 0.00 0.00 0.01 0.01 0.01 0.01 0.01 0.00 0.00 0.01 0.01 0.00 0.00 0.00 0.01 0.01 0.03 0.03 0.02 0.02 0.03 0.02 0.02 0.05 0.13 0.19 0.22 0.28 0.29 0.20 0.16 0.23
0.00 0.00 0.00 0.00 0.00 0.00 0.00 0.01 0.02 0.03 0.09 0.11 0.06 0.10 0.06 0.01 0.00 0.00 0.00 0.00 0.00 0.00 0.00 0.00 0.00 0.01 0.01 0.01 0.01 0.00 0.00 0.01 0.01 0.02 0.05 0.07 0.05 0.02 0.00 0.01 0.05 0.11 0.16 0.23 0.37 0.38 0.27 0.31 0.41
0.00 0.00 0.00 0.00 0.00 0.00 0.00 0.00 0.01 0.04 0.11 0.16 0.11 0.22 0.19 0.02 0.00 0.00 0.00 0.00 0.00 0.00 0.00 0.00 0.00 0.01 0.01 0.00 0.00 0.00 0.00 0.00 0.01 0.01 0.02 0.04 0.04 0.03 0.04 0.06 0.09 0.15 0.20 0.28 0.31 0.41 0.25 0.21 0.20
0.00 0.00 0.00 0.00 0.00 0.00 0.00 0.00 0.00 0.05 0.15 0.23 0.28 0.24 0.23 0.06 0.01 0.00 0.00 0.00 0.00 0.00 0.00 0.00 0.00 0.01 0.01 0.01 0.00 0.00 0.00 0.00 0.00 0.01 0.02 0.03 0.04 0.07 0.12 0.14 0.17 0.14 0.16 0.25 0.32 0.22 0.23 0.20 0.13
0.00 0.00 0.00 0.00 0.00 0.00 0.00 0.00 0.00 0.03 0.08 0.14 0.26 0.34 0.24 0.10 0.03 0.01 0.00 0.00 0.00 0.00 0.00 0.00 0.00 0.01 0.02 0.02 0.01 0.00 0.00 0.00 0.00 0.00 0.01 0.01 0.05 0.15 0.20 0.18 0.23 0.18 0.17 0.26 0.33 0.25 0.32 0.19 0.13
0.00 0.00 0.00 0.00 0.00 0.00 0.00 0.00 0.00 0.01 0.03 0.08 0.16 0.26 0.25 0.15 0.07 0.03 0.02 0.02 0.02 0.02 0.02 0.02 0.02 0.02 0.05 0.06 0.05 0.02 0.01 0.01 0.01 0.01 0.02 0.03 0.07 0.20 0.24 0.24 0.24 0.26 0.26 0.36 0.35 0.31 0.33 0.24 0.17
0.00 0.00 0.00 0.00 0.00 0.00 0.00 0.00 0.00 0.01 0.02 0.07 0.14 0.27 0.32 0.27 0.18 0.11 0.07 0.07 0.08 0.07 0.06 0.06 0.09 0.12 0.13 0.13 0.13 0.12 0.09 0.05 0.04 0.03 0.04 0.07 0.12 0.23 0.34 0.30 0.28 0.35 0.34 0.38 0.48 0.40 0.40 0.45 0.33
0.00 0.00 0.00 0.00 0.00 0.00 0.00 0.00 0.00 0.02 0.03 0.07 0.14 0.20 0.24 0.24 0.23 0.17 0.15 0.17 0.21 0.19 0.19 0.20 0.23 0.26 0.29 0.32 0.34 0.29 0.24 0.17 0.14 0.13 0.17 0.22 0.27 0.37 0.56 0.54 0.52 0.44 0.53 0.50 0.43 0.51 0.61 0.62 0.56
0.00 0.00 0.00 0.00 0.00 0.00 0.00 0.00 0.00 0.02 0.05 0.13 0.22 0.29 0.35 0.38 0.43 0.42 0.38 0.41 0.41 0.43 0.43 0.44 0.48 0.58 0.84 1.00 0.89 0.76 0.57 0.44 0.40 0.36 0.36 0.44 0.55 0.64 0.81 0.75 0.79 0.76 0.86 0.86 0.79 0.82 0.82 0.76 0.70
0.00 0.00 0.00 0.00 0.00 0.00 0.00 0.00 0.01 0.03 0.09 0.19 0.41 0.61 0.80 0.89 0.88 0.85 0.78 0.80 0.73 0.67 0.73 0.78 0.91 1.14 1.34 1.36 1.36 1.38 1.23 1.08 0.85 0.67 0.64 0.71 0.73 0.84 1.11 1.03 1.26 1.29 1.26 1.28 1.12 1.11 1.01 0.90 0.89
0.00 0.00 0.00 0.00 0.00 0.00 0.00 0.00 0.02 0.06 0.07 0.08 0.18 0.33 0.51 0.84 1.00 1.04 1.07 1.00 0.85 0.89 1.07 1.31 1.66 1.92 1.81 1.91 2.08 1.99 1.83 1.38 1.11 0.97 0.91 0.93 1.04 1.13 1.28 1.53 1.60 1.59 1.56 1.55 1.44 1.31 1.09 0.96 1.02
0.00 0.00 0.00 0.00 0.00 0.00 0.00 0.00 0.02 0.09 0.15 0.19 0.19 0.22 0.28 0.42 0.56 0.72 0.86 0.95 1.13 1.35 1.56 1.82 2.09 2.19 2.12 2.23 2.27 1.98 1.84 1.49 1.36 1.30 1.19 1.18 1.33 1.42 1.54 1.69 1.77 1.66 1.59 1.54 1.55 1.38 1.19 1.10 1.10
0.00 0.00 0.00 0.00 0.00 0.00 0.00 0.00 0.01 0.04 0.09 0.16 0.25 0.30 0.32 0.36 0.43 0.59 0.80 1.09 1.45 1.75 2.09 2.37 2.40 2.38 2.30 2.36 2.29 2.15 1.97 1.72 1.66 1.70 1.49 1.34 1.34 1.39 1.47 1.52 1.62 1.63 1.61 1.47 1.37 1.33 1.32 1.21 1.10
0.00 0.00 0.00 0.00 0.00 0.00 0.00 0.00 0.00 0.01 0.03 0.08 0.18 0.29 0.37 0.46 0.52 0.66 0.88 1.16 1.38 1.68 1.99 2.23 2.41 2.43 2.33 2.26 2.18 2.13 1.95 1.78 1.68 1.61 1.49 1.41 1.45 1.37 1.35 1.40 1.52 1.55 1.49 1.38 1.38 1.41 1.36 1.22 1.09
0.00 0.00 0.00 0.00 0.00 0.00 0.00 0.01 0.02 0.03 0.04 0.07 0.19 0.30 0.41 0.59 0.69 0.83 1.05 1.23 1.33 1.50 1.75 1.93 2.06 2.06 2.01 1.94 1.91 1.91 1.87 1.86 1.72 1.57 1.57 1.60 1.54 1.38 1.30 1.32 1.40 1.42 1.37 1.30 1.29 1.32 1.30 1.20 1.16
0.00 0.01 0.04 0.02 0.00 0.00 0.01 0.01 0.06 0.10 0.11 0.15 0.23 0.39 0.57 0.79 0.91 1.03 1.23 1.38 1.44 1.42 1.48 1.58 1.62 1.61 1.52 1.46 1.40 1.41 1.44 1.48 1.43 1.44 1.50 1.54 1.52 1.43 1.35 1.27 1.17 1.14 1.14 1.19 1.28 1.28 1.28 1.27 1.24
0.04 0.06 0.16 0.13 0.03 0.01 0.01 0.06 0.17 0.18 0.20 0.24 0.29 0.40 0.59 0.75 0.87 1.04 1.13 1.07 1.01 1.03 1.10 1.15 1.15 1.12 1.05 1.06 1.08 1.11 1.21 1.27 1.27 1.33 1.38 1.44 1.46 1.44 1.31 1.12 1.04 1.02 1.05 1.12 1.22 1.33 1.30 1.32 1.30
0.12 0.16 0.14 0.23 0.17 0.14 0.05 0.11 0.20 0.22 0.33 0.41 0.49 0.55 0.59 0.63 0.63 0.66 0.68 0.73 0.80 0.85 0.86 0.85 0.88 0.88 0.82 0.81 0.88 0.94 0.99 1.07 1.08 1.16 1.20 1.24 1.23 1.19 1.13 1.05 1.00 0.96 1.00 1.03 1.04 1.14 1.11 1.11 1.12
0.12 0.22 0.33 0.47 0.45 0.32 0.14 0.15 0.32 0.45 0.49 0.55 0.71 0.92 0.80 0.58 0.52 0.51 0.52 0.58 0.62 0.65 0.70 0.74 0.82 0.90 0.86 0.80 0.80 0.80 0.84 0.88 0.96 1.02 1.02 1.04 1.09 1.07 1.02 1.00 0.98 0.93 0.90 0.89 0.91 0.96 1.00 0.91 0.89
0.20 0.28 0.38 0.48 0.50 0.45 0.36 0.33 0.30 0.57 0.64 0.63 0.68 0.73 0.65 0.46 0.34 0.30 0.31 0.36 0.44 0.56 0.64 0.66 0.76 0.84 0.80 0.71 0.70 0.74 0.75 0.78 0.81 0.84 0.84 0.86 0.92 0.96 0.97 0.95 0.89 0.79 0.72 0.68 0.68 0.73 0.81 0.80 0.75
0.15 0.28 0.39 0.48 0.48 0.47 0.45 0.44 0.27 0.42 0.48 0.49 0.56 0.47 0.39 0.28 0.21 0.19 0.20 0.24 0.32 0.41 0.47 0.54 0.63 0.73 0.75 0.71 0.70 0.73 0.76 0.74 0.72 0.72 0.69 0.69 0.71 0.73 0.73 0.73 0.76 0.78 0.74 0.66 0.63 0.63 0.63 0.65 0.66